Hourly Data Report for October 12, 2003

SHERBROOKE A
QUEBEC

45°26'00.000" N
71°41'00.000" W
241.40 m
7028124
71610
YSC

Download Data

Hourly Data (October 2003)
Hourly Data Report for October 12, 2003
TIME
LST
Temp Definition
°C
Dew Point Definition
°C
Rel Hum Definition
%
Precip. Amount Definition
mm

Wind Dir Definition
10's deg

Wind Spd Definition
km/h
Visibility Definition
km
Stn Press Definition
kPa
Hmdx Definition


Wind Chill Definition


Weather Definition


00:00 7.5 6.8 95   10 4 8.0 99.06      
01:00 6.9 6.2 95   8 6 4.0 99.03      
02:00 7.5 6.8 95   8 7 5.6 98.95      
03:00 7.1 6.4 95   9 7 6.4 98.90      
04:00 5.8 5.2 96   6 6 1.6 98.86      
05:00 5.2 4.6 96   7 7 1.1 98.82      
06:00 5.7 5.1 96   7 6 3.7 98.78      
07:00 6.8 6.1 95   6 7 6.4 98.77     Fog
08:00 10.0 8.1 88     0 12.9 98.73     Clear
09:00 12.8 10.1 84   3 4 24.1 98.63     Clear
10:00 16.7 11.7 72   28 4 24.1 98.53     Mainly Clear
11:00 22.3 8.4 41   17 7 24.1 98.43     Mainly Clear
12:00 23.6 7.1 35   15 13 24.1 98.30     Mainly Clear
13:00 23.7 6.3 33   19 15 24.1 98.19     Mainly Clear
14:00 22.6 6.2 35   15 11 24.1 98.08     Mostly Cloudy
15:00 23.1 7.5 37   15 13 24.1 97.99     Mostly Cloudy
16:00 21.5 8.7 44   21 7 24.1 98.00     Mostly Cloudy
17:00 20.0 9.0 49   20 7 15.0 97.99      
18:00 17.5 10.2 62   18 7 15.0 97.99      
19:00 12.0 9.4 84   21 4 15.0 97.99      
20:00 9.3 7.5 89   15 6 15.0 97.99      
21:00 10.4 8.9 90   24 6 15.0 97.98      
22:00 12.0 9.4 84   20 7 15.0 98.00      
23:00 13.5 11.0 85   20 6 15.0 98.02      

Notes on Data Quality.

Legend

  • E = Estimated
  • M = Missing
  • NA = Not Available*
  • [empty] = Indicates an unobserved value
Date modified: